www.pogodaiklimat.ru

Погода и климат >> Архив погоды >> Австралия >> Южная Австралия >> Клив аэропорт


ПОГОДА в Кливе аэропорту

  • Прогноз погоды в Кливе аэропорту
  • Монитор погоды в Кливе аэропорту

АРХИВ ПОГОДЫ в Кливе аэропорту

Время (UTC), дата Ветер
(напр.,м/с)
 
Видим.   Явления Облачность Т
(С)
Тd
(С)
f
(%)
Тe
(С)
Тes
(С)
Комфортность P
(гПа)
Po
(гПа)
Тmin
(С)
Tmax
(С)
R
(мм)
R24
(мм)
S
(см)
16 16.08 СВ 4 н/о н/о +6.6 +5.6 93 +3 +3 1020.1 999.0
17 16.08 СВ 4 н/о н/о +8.1 +7.3 95 +5 +5 1019.7 998.6
19 16.08 СВ 3 н/о н/о +7.5 +6.3 92 +4 +4 1018.3 997.2
20 16.08 СВ 4 н/о н/о +8.1 +6.7 91 +5 +5 1017.8 996.7
22 16.08 СВ 3 н/о н/о +8.7 +7.3 91 +6 +6 1017.3 996.2
23 16.08 С 7 н/о н/о +10.5 +7.2 80 +7 +7 1017.3 996.2
01 17.08 СВ 5 н/о н/о +13.2 +7.4 68 +11 +11 1016.3 995.2
02 17.08 С 7 н/о н/о +17.4 +7.2 51 +16 +16 1014.9 993.9 +5.8
04 17.08 С 5 н/о н/о +18.0 +5.9 45 +18 +18 1012.4 991.4
05 17.08 С 8 н/о н/о +17.3 +5.3 45 +16 +16 1011.5 990.5
07 17.08 С 6 н/о н/о +19.0 +5.5 41 +19 +19 1010.3 989.4
08 17.08 СЗ 5 н/о н/о +18.6 +3.6 37 +18 +18 1010.4 989.5
10 17.08 СЗ 4 н/о н/о +15.3 +4.4 48 +15 +15 1011.0 990.0
11 17.08 З 7 н/о н/о +14.3 +5.9 57 +12 +12 1010.6 989.7
13 17.08 З 8 н/о н/о +13.5 +7.3 66 +11 +11 1010.7 989.8
14 17.08 З 9 н/о н/о +12.9 +9.0 77 +10 +10 1010.3 989.4 +19.4
16 17.08 З 8 н/о н/о +11.2 +8.1 81 +8 +8 1011.2 990.2
17 17.08 З 9 н/о н/о +10.5 +6.8 78 +7 +7 1011.0 990.0
19 17.08 СЗ 9 н/о н/о +9.8 +5.8 76 +6 +6 1010.9 989.9
20 17.08 З 8 н/о н/о +8.9 +4.7 75 +5 +5 1011.5 990.5
22 17.08 З 7 н/о н/о +7.3 +4.3 81 +3 +3 1013.0 992.0
23 17.08 З 8 н/о туман местами н/о +7.1 +4.4 83 +2 +2 1014.1 993.1 0.8
01 18.08 З 8 н/о н/о +10.1 +5.1 71 +6 +6 1014.3 993.3
02 18.08 З 8 н/о {туман} н/о +10.2 +3.5 63 +6 +6 1014.2 993.2 +6.9
04 18.08 З 6 н/о н/о +8.3 +5.8 84 +4 +4 1014.7 993.7
05 18.08 З 8 н/о в посл. час дождь {туман} н/о +6.8 +5.4 91 +2 +2 1015.5 994.5 6
07 18.08 З 6 н/о н/о +7.2 +5.3 88 +3 +3 1017.5 996.4
08 18.08 З 5 н/о {туман} н/о +7.0 +5.0 87 +3 +3 1018.9 997.8
10 18.08 З 5 н/о н/о +6.0 +4.2 88 +2 +2 1021.3 1000.1
11 18.08 З 5 н/о {туман} н/о +5.9 +4.4 90 +1 +1 1022.3 1001.1 0.4
13 18.08 З 6 н/о н/о +5.0 +2.9 86 0 0 1023.8 1002.6
14 18.08 З 5 н/о н/о +4.5 +2.4 86 -0 -0 1024.2 1003.0 +15.5
16 18.08 З 5 н/о н/о +4.8 +2.3 84 0 0 1024.9 1003.7
17 18.08 З 5 н/о н/о +4.5 +1.9 83 -0 -0 1025.5 1004.2
19 18.08 З 4 н/о н/о +3.9 +1.4 84 -1 -1 1025.8 1004.5
20 18.08 З 5 н/о н/о +3.8 +1.2 83 -1 -1 1026.4 1005.1
22 18.08 З 4 н/о н/о +4.7 +2.2 84 +1 +1 1028.3 1007.0
23 18.08 З 5 н/о н/о +7.1 +3.3 77 +3 +3 1029.3 1008.0 6
01 19.08 З 5 н/о н/о +10.7 +5.9 72 +8 +8 1030.8 1009.4
02 19.08 ЮЗ 5 н/о н/о +11.2 +5.9 70 +9 +9 1031.1 1009.7 +3.8
04 19.08 ЮЗ 5 н/о н/о +12.3 +6.1 66 +10 +10 1030.4 1009.0
05 19.08 ЮЗ 5 н/о н/о +11.3 +8.2 81 +9 +9 1030.3 1008.9
07 19.08 Ю 2 н/о н/о +10.2 +8.5 89 +9 +9 1031.0 1009.6
08 19.08 ЮВ 2 н/о {туман} н/о +10.2 +8.5 89 +9 +9 1031.4 1010.0
10 19.08 З 3 н/о н/о +8.3 +7.4 94 +6 +6 1032.8 1011.4
11 19.08 З 3 н/о {туман} н/о +7.3 +5.6 89 +4 +4 1033.4 1012.0 0.4
13 19.08 З 4 н/о н/о +7.9 +6.4 90 +4 +4 1033.8 1012.4
14 19.08 З 5 н/о н/о +8.1 +7.0 93 +4 +4 1033.9 1012.5 +13.3
16 19.08 СЗ 4 н/о н/о +7.3 +6.4 94 +4 +4 1033.2 1011.8
17 19.08 З 4 н/о н/о +7.7 +6.5 92 +4 +4 1032.9 1011.5
19 19.08 СЗ 4 н/о н/о +7.4 +6.0 91 +4 +4 1032.0 1010.6
20 19.08 СЗ 4 н/о {туман} н/о +8.4 +6.7 89 +5 +5 1032.3 1010.9
22 19.08 СЗ 5 н/о н/о +8.4 +7.3 93 +5 +5 1033.0 1011.6
23 19.08 З 5 н/о {туман} н/о +10.0 +8.1 88 +7 +7 1033.8 1012.4 0.6
01 20.08 З 6 н/о н/о +12.1 +9.7 85 +9 +9 1034.4 1013.0
02 20.08 З 8 н/о н/о +13.2 +9.3 77 +10 +10 1033.9 1012.5 +7.1
04 20.08 З 9 н/о н/о +15.4 +6.7 56 +13 +13 1032.6 1011.2
05 20.08 З 9 н/о н/о +15.7 +7.2 57 +14 +14 1032.1 1010.7
07 20.08 З 9 н/о н/о +13.9 +8.5 70 +11 +11 1031.8 1010.4
08 20.08 З 8 н/о н/о +13.5 +7.9 69 +11 +11 1031.9 1010.5
10 20.08 З 6 н/о н/о +11.0 +9.9 93 +8 +8 1032.4 1011.0
11 20.08 З 5 н/о н/о +10.5 +9.3 92 +8 +8 1032.8 1011.4
13 20.08 З 5 н/о н/о +9.9 +7.7 86 +7 +7 1032.4 1011.0
14 20.08 З 5 н/о н/о +10.4 +8.2 86 +7 +7 1032.3 1010.9 +16.3
16 20.08 З 5 н/о н/о +9.8 +8.6 92 +6 +6 1031.5 1010.1
17 20.08 З 6 н/о н/о +9.1 +7.9 92 +5 +5 1031.1 1009.7
19 20.08 З 6 н/о н/о +9.0 +7.8 92 +5 +5 1030.4 1009.0
20 20.08 З 6 н/о н/о +9.5 +8.3 92 +6 +6 1030.3 1008.9
22 20.08 З 5 н/о н/о +9.3 +8.1 92 +6 +6 1031.3 1009.9
23 20.08 З 6 н/о н/о +11.0 +9.4 90 +8 +8 1031.7 1010.3
01 21.08 З 7 н/о н/о +13.0 +10.2 83 +10 +10 1031.6 1010.2
02 21.08 З 6 н/о н/о +14.8 +10.6 76 +13 +13 1031.6 1010.2 +8.7
04 21.08 З 7 н/о н/о +17.7 +9.3 58 +17 +17 1029.9 1008.6
05 21.08 ЮЗ 7 н/о н/о +17.0 +8.7 58 +16 +16 1029.6 1008.3
07 21.08 ЮЗ 7 н/о н/о +16.0 +8.7 62 +15 +15 1029.3 1008.0
08 21.08 ЮЗ 6 н/о н/о +14.4 +8.6 68 +13 +13 1029.8 1008.5
10 21.08 З 5 н/о н/о +10.5 +8.3 86 +8 +8 1030.9 1009.5
11 21.08 З 3 н/о н/о +10.2 +8.3 88 +8 +8 1030.9 1009.5
13 21.08 З 4 н/о н/о +10.4 +8.8 90 +8 +8 1031.0 1009.6
14 21.08 СЗ 3 н/о н/о +9.8 +8.4 91 +8 +8 1030.9 1009.5 +18.8
16 21.08 СЗ 3 н/о н/о +8.3 +7.4 94 +5 +5 1030.3 1008.9
17 21.08 З 3 н/о н/о +8.7 +7.9 95 +6 +6 1029.8 1008.5
19 21.08 З 3 н/о н/о +8.9 +8.0 94 +6 +6 1029.2 1007.9
20 21.08 З 3 н/о н/о +9.2 +7.6 90 +7 +7 1029.4 1008.1
22 21.08 ЮЗ 3 н/о н/о +9.6 +6.7 82 +8 +8 1029.9 1008.6
23 21.08 З 3 н/о н/о +10.8 +6.6 75 +9 +9 1030.6 1009.2
01 22.08 ЮЗ 4 н/о н/о +12.5 +6.1 65 +11 +11 1030.7 1009.3
02 22.08 Ю 4 н/о н/о +12.9 +5.6 61 +11 +11 1030.4 1009.0 +7.5
04 22.08 ЮВ 4 н/о н/о +15.0 +7.1 59 +14 +14 1028.9 1007.6
05 22.08 Ю 3 н/о н/о +14.2 +6.1 58 +13 +13 1028.3 1007.0
07 22.08 ЮВ 5 н/о н/о +14.0 +6.1 59 +13 +13 1028.2 1006.9
08 22.08 ЮВ 5 н/о н/о +12.1 +5.7 65 +10 +10 1028.1 1006.8
10 22.08 СВ 4 н/о н/о +6.8 +4.6 86 +3 +3 1027.9 1006.6
11 22.08 СВ 4 н/о н/о +6.8 +5.1 89 +3 +3 1028.0 1006.7
13 22.08 С 5 н/о н/о +6.5 +4.8 89 +2 +2 1027.7 1006.4
14 22.08 СВ 4 н/о н/о +6.1 +4.6 90 +2 +2 1027.3 1006.0 +15.6
16 22.08 В 3 н/о н/о +7.3 +4.8 84 +5 +5 1026.0 1004.7
17 22.08 СВ 2 н/о н/о +6.7 +4.9 88 +5 +5 1025.4 1004.1
19 22.08 С 5 н/о н/о +7.7 +5.5 86 +4 +4 1024.0 1002.8
20 22.08 С 5 н/о н/о +7.4 +5.4 87 +3 +3 1024.0 1002.8
22 22.08 С 6 н/о н/о +8.5 +5.3 80 +5 +5 1024.0 1002.8
23 22.08 С 6 н/о н/о +10.6 +5.8 72 +8 +8 1024.2 1003.0
01 23.08 СЗ 7 н/о н/о +16.8 +5.7 48 +16 +16 1023.4 1002.2
02 23.08 СЗ 7 н/о н/о +17.9 +4.8 42 +17 +17 1022.2 1001.0 +6.0
04 23.08 СЗ 8 н/о н/о +19.5 +2.8 33 +19 +19 1019.5 998.4
05 23.08 СЗ 8 н/о н/о +20.7 +1.6 28 +21 +21 комфорт 1018.7 997.6
07 23.08 СЗ 7 н/о н/о +20.0 +1.9 30 +20 +20 1017.5 996.4
08 23.08 СЗ 6 н/о н/о +18.9 +2.3 33 +19 +19 1017.8 996.7
10 23.08 С 6 н/о н/о +15.0 +3.2 45 +13 +13 1018.0 996.9
11 23.08 С 7 н/о н/о +14.5 +1.4 41 +13 +13 1017.8 996.7
13 23.08 С 6 н/о н/о +13.9 +0.5 40 +12 +12 1017.2 996.1
14 23.08 С 8 н/о н/о +14.9 0.0 36 +13 +13 1016.3 995.2 +21.2

 

Местоположение метеостанции Клив аэропорт (Южная Австралия, Австралия): широта -33.72 долгота 136.50 высота над уровнем моря 176 м.

В архиве по умолчанию представлена погода в Кливе аэропорту за последнюю неделю. Архивные данные за месяц целиком и за предыдущие месяцы, начиная с января 2011 года, Вы можете получить, выбрав интересующий диапазон дат из раскрывающегося списка и нажав кнопку "Ввод!".


*Определитесь, кто Вы:
робот инопланетянин человек

Внимание! Время в таблицах - всемирное. Для получения местного времени необходимо прибавить поправку, которая равна 9.5 ч.

Смотрите также архив погоды в соседних городах и на ближайших метеорологических станциях:

Погода в Камминсе (Южная Австралия, Австралия) (93 км)
Погода в Мунте (Южная Австралия, Австралия) (100 км)
Погода в Кадине (Южная Австралия, Австралия) (112 км)
Погода в Порт-Линкольне (Южная Австралия, Австралия) (113 км)
Погода в Уиолле (Южная Австралия, Австралия) (119 км)
Погода в Уудинне (Южная Австралия, Австралия) (123 км)
Погода в Колте (Южная Австралия, Австралия) (127 км)
Погода в Минлатоне (Южная Австралия, Австралия) (148 км)
Погода в Миннипа Пирса (Южная Австралия, Австралия) (158 км)
Погода в Сноутауне (Южная Австралия, Австралия) (159 км)

Пояснения к столбцам:

Ветер - указаны скорость ветра в м/с - средняя за 10 мин, порывы в срок и между сроками (в фигурных скобках) и направление, откуда дует ветер: С - северный, СВ - северо-восточный, В - восточный, ЮВ - юго-восточный, Ю - южный, ЮЗ - юго-западный, З - западный, СЗ - северо-западный.
Видимость - горизонтальная дальность видимости в метрах или километрах. При видимости от 1 до 10 км при отсутствии осадков обычно наблюдается дымка, при ухудшении видимости до 1 км и менее - туман. В сухую погоду видимость может ухудшаться дымом, пылью или мглою.
Явления - указаны атмосферные явления, наблюдавшиеся в срок или в последний час перед сроком; фигурными скобками обозначены явления, наблюдавшиеся между сроками (за 1-3 часа до срока); квадратными скобками обозначены град или гололедные отложения с указанием их диаметра в мм.
Облачность - указаны через наклонную черту общая и нижняя облачность в баллах и высота нижней границы облаков в метрах; квадратными скобками обозначены формы облаков: Ci - перистые, Cs - перисто-слоистые, Cc - перисто-кучевые, Ac - высококучевые, As - высокослоистые, Sc - слоисто-кучевые, Ns - слоисто-дождевые, Cu - кучевые, Cb - кучево-дождевые. Подробнее классификацию облаков см. в Атласе облаков (PDF).
T - Температура воздуха - температура, измеренная на высоте 2 м над землей.
Td - Температура точки росы - температура, при понижении до которой содержащийся в воздухе водяной пар достигнет насыщения.
f - Относительная влажность воздуха - влажноcть воздуха, измеренная на высоте 2 м над землей.
Te - Эффективная температура - температура, которую ощущает одетый по сезону человек в тени. Характеристика душности погоды. При расчете учитывается влияние влажности воздуха и скорости ветра на теплоощущения человека.
Tes - Эффективная температура на солнце - температура, которую ощущает человек, с поправкой на солнечный нагрев. Характеристика знойности погоды. Зависит от высоты солнца над горизонтом, облачности и скорости ветра. Ночью, в пасмурную погоду, а также при ветре 12 м/с и более поправка равна нулю.
P - Атмосферное давление - приведенное к уровню моря атмосферное давление.
Po - Атмосферное давление - измеренное на уровне метеостанции атмосферное давление.
Tmin - Минимальная температура - минимум температуры воздуха на высоте 2 м над землей.
Tmax - Максимальная температура - максимум температуры воздуха на высоте 2 м над землей.
R - Количество осадков - Количество выпавших осадков за период времени, мм. При наведении курсора мыши на число - период времени, за который выпало указанное количество осадков.
R24 - Количество осадков - Количество выпавших осадков за 24 часа, мм.
S - Снежный покров - Высота снежного покрова, см. При наведении курсора мыши на число - состояние снежного покрова и степень покрытия местности в баллах.